Dewpoint
52 52 52 51 51 52 52 52 52 53 53 52 52 52 51 51 51 49 46 46 45 43 44 44 40 38 37 34 30 31 30 31 36 30 24 26 25 27 32 29 38 33 36 38 36 36 37 44 43 41 46 49 50 49
52 52 52 51 50 50 51 50 51 52 52 52 52 52 51 51 51 49 42 45 47 44 42 44 44 42 41 39 37 35 33 31 38 37 38 38 36 31 31 29 34 29 36 41 42 42 44 45 44 47 48 42 44 45
52 52 52 51 51 50 50 50 50 50 51 51 52 51 51 51 51 50 46 43 44 43 45 45 44 45 46 42 40 35 31 34 27 41 38 36 28 30 25 28 29 33 40 43 41 42 41 41 42 42 41 42 44 45
52 52 52 51 51 51 51 51 50 50 50 51 52 51 51 51 51 50 46 44 43 42 41 43 47 43 45 45 41 38 32 29 35 38 33 33 32 33 31 32 31 34 37 41 40 42 43 42 42 42 44 46 50 54
51 51 52 52 52 52 51 52 52 52 51 51 51 51 51 51 50 49 47 47 46 44 41 43 46 46 45 43 43 39 32 31 36 34 35 34 37 37 38 36 34 39 37 39 39 41 40 41 44 46 47 50 53 56
51 51 51 51 52 52 52 52 52 51 51 51 51 51 50 50 51 46 47 48 49 47 45 43 45 45 45 40 38 35 36 38 38 36 36 39 41 37 34 33 39 43 43 42 41 43 43 44 47 48 50 54 54 55
51 51 51 51 51 52 51 50 50 50 50 51 51 50 50 51 49 40 47 49 49 47 45 42 43 44 43 40 40 40 42 41 40 39 39 37 38 39 37 34 42 44 44 43 44 43 43 45 45 48 54 56 56 57
51 51 51 51 51 50 49 49 50 50 51 51 51 51 51 51 50 45 46 49 48 45 47 42 42 40 41 38 37 42 39 41 40 39 41 38 38 40 36 37 43 45 44 44 43 43 43 45 48 49 52 56 55 54
51 51 51 51 50 49 49 49 50 50 51 51 52 51 48 46 47 50 53 51 51 48 44 44 41 40 44 43 43 43 42 38 41 38 37 38 37 35 36 43 45 45 43 44 44 43 45 48 49 49 51 53 52 52
51 51 50 49 49 50 50 49 50 51 51 51 49 47 47 48 52 53 49 46 47 47 45 41 44 41 40 43 43 42 43 38 34 37 42 38 37 40 42 45 45 44 43 43 41 42 46 47 49 49 49 52 53 54
51 50 49 49 49 49 50 50 51 51 49 45 43 43 47 50 47 47 44 43 45 43 45 45 43 35 40 41 41 44 41 41 37 38 36 37 40 44 44 43 43 43 42 41 42 44 45 46 48 50 51 52 54 54
51 50 50 50 50 51 51 51 51 48 46 45 47 49 47 45 42 41 43 44 45 43 46 45 45 43 43 47 42 43 42 41 36 42 41 40 46 45 44 46 47 45 43 43 44 45 47 47 50 51 52 53 53 53
51 50 50 50 51 51 51 51 51 50 50 49 47 46 45 43 34 39 36 37 40 45 50 50 47 49 48 46 42 43 39 38 43 38 38 43 47 49 49 49 48 48 47 47 47 48 49 49 51 52 53 54 53 52
51 50 51 51 51 51 51 51 51 50 47 46 45 37 42 42 41 39 40 42 46 51 50 50 49 49 51 46 46 39 41 43 39 39 39 46 48 49 49 50 50 47 47 47 47 48 50 50 50 52 53 53 52 51
51 51 51 50 50 51 51 51 50 49 47 46 44 37 40 43 44 44 44 46 50 50 47 46 45 48 45 47 46 43 40 38 39 40 43 48 49 50 49 47 47 47 49 49 50 51 51 52 52 51 52 52 51 51
50 50 50 50 51 51 50 49 48 48 48 47 44 41 43 41 41 41 41 44 49 50 51 50 43 41 43 45 42 40 39 37 41 47 51 52 51 49 48 48 49 51 51 51 51 51 52 51 50 50 50 50 50 50
50 47 50 50 50 49 49 47 47 47 46 44 41 43 43 42 41 42 43 45 52 48 44 47 43 41 44 43 42 42 41 44 49 52 53 52 51 49 48 50 51 52 51 50 50 50 50 50 50 49 48 48 50 51
47 48 49 50 49 48 47 48 46 46 44 44 41 41 42 42 41 42 43 46 47 48 47 45 48 41 39 39 40 44 47 49 52 53 52 52 50 49 50 50 51 50 48 49 48 48 48 47 47 47 48 48 50 50
48 48 49 49 49 46 43 45 47 42 43 43 43 43 43 42 43 43 43 44 50 50 49 48 44 42 42 45 45 46 50 49 49 52 54 53 51 49 49 51 51 47 46 47 47 47 47 47 48 52 51 52 50 51
49 49 49 49 49 45 41 43 48 45 42 42 41 40 40 41 42 43 44 44 46 49 47 45 45 44 46 49 50 49 49 50 51 50 52 53 50 48 49 51 51 48 47 47 47 47 47 46 49 52 51 52 52 52
48 48 49 49 47 45 43 42 42 44 43 40 41 41 41 42 43 43 44 45 46 45 43 46 47 47 48 48 51 52 50 51 51 52 51 50 50 49 48 50 50 50 47 47 47 46 47 48 47 50 51 51 51 51
47 49 48 47 44 44 41 43 42 43 42 40 40 41 39 38 39 42 46 44 43 44 44 43 44 46 47 47 49 52 50 50 50 52 49 49 50 49 49 50 50 50 50 49 46 45 45 48 49 50 49 48 49 51
48 48 47 45 41 40 38 44 41 42 40 41 43 40 39 43 46 47 43 43 44 45 45 45 44 45 45 46 49 50 51 52 51 49 50 48 47 48 49 49 50 49 48 48 47 45 44 45 48 50 51 52 52 51
48 45 42 41 40 36 41 40 43 41 42 41 41 39 40 41 45 45 43 43 44 45 45 45 46 46 47 47 48 50 50 50 48 45 48 48 46 45 46 48 49 50 49 47 45 46 46 47 47 50 48 47 47 47
39 38 39 35 41 39 38 39 40 40 39 40 39 39 39 45 44 43 43 46 50 50 51 50 48 47 48 46 48 49 50 48 46 45 46 48 46 45 44 45 46 47 48 47 46 45 45 46 47 48 48 47 46 46
34 38 36 37 39 38 39 37 38 39 40 39 40 43 45 45 43 42 46 48 50 52 52 51 52 52 51 52 48 48 50 51 48 47 46 47 46 44 43 41 41 43 46 47 47 46 46 47 46 46 47 47 43 45
34 34 39 41 42 42 40 41 41 40 39 38 41 42 44 40 40 45 49 52 52 53 53 53 53 52 50 50 53 53 51 50 48 48 48 47 47 46 43 41 41 42 46 46 46 46 46 45 45 45 45 44 44 43
37 38 36 40 41 42 39 39 39 38 39 41 43 42 41 42 42 47 50 53 52 53 53 53 54 54 53 52 52 52 50 49 49 48 46 45 46 47 46 45 44 42 48 46 46 46 46 47 49 45 46 44 43 43
38 39 39 35 37 40 41 39 38 39 42 43 41 42 44 47 48 50 48 46 45 48 47 49 52 54 54 53 53 52 50 48 46 46 45 43 43 44 47 46 46 46 47 46 42 44 46 46 45 44 44 45 45 44
36 37 34 35 35 35 37 41 40 40 40 40 41 40 39 39 41 42 42 42 43 43 44 44 47 52 50 49 50 49 49 50 48 44 43 42 42 44 47 48 49 50 49 50 47 46 42 45 44 44 43 42 41 42
38 40 37 36 35 35 36 36 38 39 39 38 39 39 39 39 40 42 42 42 42 42 43 43 44 50 50 51 51 50 48 48 48 47 47 45 42 45 47 48 49 49 50 48 47 48 47 46 46 45 45 43 41 40
38 36 35 34 34 36 38 38 38 38 38 38 38 39 39 40 40 42 43 43 43 42 43 43 42 46 53 54 53 53 47 51 51 49 46 44 45 46 47 48 48 48 49 48 48 48 47 46 45 45 44 43 41 40
39 39 38 37 38 38 40 39 39 39 39 39 39 39 40 40 40 42 45 47 43 42 42 42 44 47 52 54 54 54 50 53 50 45 42 39 41 46 47 48 50 50 49 48 49 49 48 47 47 47 46 45 45 45
Lifted_Index
16 16 16 16 16 15 14 13 12 11 11 12 13 13 14 14 14 13 12 11 10 10 10 9 9 7 6 5 5 4 4 4 3 3 3 2 2 3 3 2 1 1 -0 -1 -0 -0 -0 -1 -1 -1 -0 0 0 1
15 15 15 16 16 15 14 14 13 12 11 11 12 13 13 14 14 13 12 12 11 10 9 9 8 7 6 6 5 5 5 4 3 3 3 2 2 2 2 2 1 0 -0 -1 -1 -1 -1 -1 -1 -0 0 1 1 1
15 15 15 15 15 15 14 13 13 12 11 11 11 12 12 13 13 13 13 12 11 10 8 6 5 5 5 5 6 6 5 5 4 3 3 2 2 2 2 2 1 1 -0 -1 -1 -1 -1 -1 -0 1 1 2 2 2
14 14 14 14 14 14 14 13 13 13 12 11 10 10 11 12 12 12 11 10 10 9 7 5 3 3 3 4 5 5 5 5 4 4 3 3 2 2 3 2 2 1 1 0 0 -0 -0 0 1 1 2 2 2 2
14 14 14 14 14 14 13 13 13 12 12 11 10 10 10 11 12 11 9 8 8 7 6 5 4 3 3 3 4 4 4 4 4 4 3 3 3 3 2 2 2 2 1 1 1 1 1 1 2 2 2 2 2 1
13 13 13 13 13 13 13 13 12 12 11 11 10 9 9 10 11 10 7 6 6 6 6 6 5 3 3 3 3 3 3 3 4 4 3 3 3 2 2 2 1 1 1 1 1 1 1 2 3 3 2 1 1 1
12 12 12 12 12 12 13 12 12 11 10 10 9 8 8 9 10 8 6 5 5 5 6 6 5 3 3 3 3 3 3 3 3 3 3 3 2 2 2 2 1 0 1 1 1 1 2 2 3 2 2 1 1 1
11 11 11 11 11 12 12 12 11 10 9 9 8 7 7 7 7 6 6 6 5 6 5 5 4 3 2 2 2 2 2 2 2 2 2 2 2 2 2 1 1 0 0 1 1 2 2 3 3 2 2 1 2 2
10 10 10 10 10 11 11 11 10 9 8 8 7 6 6 6 5 5 6 6 6 5 5 4 3 2 2 2 1 1 1 1 1 2 2 2 2 2 2 1 1 0 0 1 1 2 3 3 3 3 2 2 2 2
9 9 10 10 10 10 10 10 9 8 7 7 7 6 5 5 5 5 5 5 5 5 4 4 3 2 2 1 0 0 0 0 1 1 1 1 1 1 1 1 0 0 0 1 1 2 2 3 3 3 2 2 2 2
8 9 9 9 9 9 9 9 8 7 6 7 7 6 5 5 5 5 5 4 4 4 4 3 2 2 2 1 0 -0 -0 -0 0 0 1 1 1 1 0 0 -0 0 1 1 2 2 3 3 3 2 2 2 2 2
9 9 8 8 8 8 8 8 7 6 6 6 6 6 6 5 5 5 4 3 3 3 2 2 1 1 2 1 0 -0 -0 0 0 0 0 0 0 -0 -0 -0 -0 0 1 2 2 3 3 3 2 2 2 2 2 2
9 9 8 8 8 8 8 7 7 7 6 6 5 5 5 4 4 4 4 3 3 2 2 2 1 1 1 1 1 0 0 0 0 -0 -1 -1 -1 -0 -0 -0 -0 0 1 2 2 3 3 2 2 2 2 2 2 2
9 9 9 8 8 8 8 8 8 7 6 5 5 4 4 4 4 4 3 3 2 2 2 2 2 1 1 1 1 1 1 1 0 -0 -1 -1 -1 -0 -0 -0 0 1 2 2 2 2 2 2 2 2 2 2 2 2
9 9 9 9 8 8 8 9 8 7 6 5 5 5 4 4 3 3 3 3 2 2 2 2 2 1 1 1 1 1 1 1 0 -0 -1 -1 -1 -0 -0 0 1 1 1 2 2 2 1 1 1 1 2 2 2 2
10 9 9 9 9 9 9 10 9 8 6 5 5 5 5 4 4 4 4 3 3 3 3 3 2 2 2 1 1 1 1 1 0 -1 -1 -1 -1 -0 -0 0 1 1 1 1 1 1 1 1 1 2 2 2 2 2
10 10 10 10 10 10 10 10 10 8 6 5 5 5 6 6 5 5 5 4 4 3 3 3 3 2 2 2 1 1 1 0 -0 -1 -1 -1 -1 -0 -0 0 0 1 2 2 2 2 2 2 2 3 3 2 2 2
10 10 11 11 11 11 10 10 9 8 6 5 5 6 6 6 6 6 6 5 4 4 3 3 3 3 2 2 1 1 1 0 -0 -1 -1 -1 -1 -0 -0 0 1 2 3 3 3 3 3 3 3 3 3 3 2 1
11 12 12 12 11 11 10 9 8 7 7 6 6 7 7 7 6 6 6 6 5 4 4 4 3 3 2 2 1 1 1 0 0 0 -0 -1 -1 -0 0 1 1 2 3 3 3 3 3 3 3 3 3 2 2 1
12 12 12 11 11 11 10 9 8 8 7 7 7 7 7 7 6 6 6 6 5 4 4 4 3 2 2 2 1 1 1 1 1 0 -0 -0 -0 1 1 1 1 1 2 2 3 3 3 2 2 2 2 2 1 1
11 11 11 11 11 11 10 9 8 8 7 7 7 6 6 6 6 5 5 5 5 4 4 3 3 3 2 2 2 2 2 1 1 0 0 -0 0 1 1 1 1 1 1 2 2 2 2 1 1 1 1 1 1 1
11 11 11 10 10 10 9 9 8 8 7 7 6 6 5 5 4 4 4 4 4 4 3 3 3 3 3 2 2 2 2 2 1 1 0 0 1 1 1 1 0 1 1 1 1 1 1 1 1 1 1 1 1 1
11 11 10 10 9 9 9 8 8 7 7 6 5 5 4 3 3 2 2 2 3 3 3 3 3 3 3 2 2 2 2 1 1 1 1 1 1 1 1 0 0 0 0 0 1 1 1 1 1 1 1 1 1 1
10 10 9 9 8 8 8 7 7 6 6 5 4 4 3 3 2 1 1 1 1 1 1 2 2 2 2 2 2 2 2 1 1 2 2 1 1 1 1 1 1 0 0 -0 0 1 1 1 1 1 1 1 2 2
10 9 9 8 8 7 7 6 6 5 5 4 4 3 3 2 1 1 1 1 1 1 1 1 1 1 2 2 2 2 1 1 1 2 2 2 2 1 1 1 1 1 0 -0 -0 0 0 1 1 1 1 1 1 1
10 9 9 8 8 7 7 6 6 5 5 4 3 3 2 1 1 1 1 1 1 1 1 1 1 1 1 1 1 1 1 1 1 1 1 2 2 1 1 1 1 1 1 0 0 0 0 0 1 1 1 1 1 1
9 9 9 8 8 7 7 6 6 5 5 4 3 2 1 1 1 1 1 1 1 1 1 1 1 1 1 1 1 1 1 1 1 1 1 1 1 1 1 1 1 1 1 0 0 0 0 0 0 0 1 1 1 1
9 9 9 8 8 7 7 6 6 5 5 4 3 2 1 1 2 2 2 2 2 2 2 2 1 1 1 1 1 0 0 0 0 1 1 1 1 1 1 1 1 1 1 1 0 0 0 0 0 0 0 0 0 1
9 9 9 8 8 7 7 6 6 6 5 4 3 2 2 2 2 3 2 2 2 2 2 2 1 1 1 1 1 0 0 0 0 0 1 1 1 1 1 1 1 1 1 1 1 1 0 0 0 0 0 0 0 0
9 9 8 8 7 7 7 6 6 6 6 5 4 3 3 3 3 3 3 3 3 2 2 2 1 1 1 1 1 0 0 0 0 0 0 1 1 1 1 1 1 1 1 1 1 0 0 0 1 1 0 0 0 0
8 7 7 6 5 5 5 5 5 5 4 4 4 4 3 3 2 2 2 2 2 2 2 2 2 1 1 0 0 0 0 0 0 0 0 0 1 1 1 1 0 0 0 0 1 1 0 0 1 0 0 0 0 1
6 6 5 4 3 3 3 3 3 2 2 2 3 3 3 2 1 1 1 2 2 2 2 2 2 1 1 0 0 0 0 0 0 0 0 0 1 1 1 1 0 0 0 0 1 1 1 1 0 0 0 0 0 1
5 4 4 3 2 2 2 2 1 1 1 1 2 2 2 1 1 1 1 1 1 2 2 2 2 1 1 0 0 0 0 0 0 0 0 0 1 1 1 1 0 0 0 0 1 1 1 0 0 0 -0 -0 -0 0